Regional Weather Roundup
Issued by NWS State College, PA

Home | Current Version | Previous Version | Text Only | Print | Product List | Glossary Off
Versions: 1 2 3 4 5 6 7 8 9 10 11 12 13 14 15 16 17 18 19 20 21 22 23 24 25 26 27 28 29 30 31 32 33 34 35 36 37 38 39 40 41 42 43 44 45 46 47 48 49 50

000
ASUS41 KCTP 202103
RWRCTP

REGIONAL WEATHER ROUNDUP
NATIONAL WEATHER SERVICE STATE COLLEGE PA
400 PM EST MON NOV 20 2017

Note: "fair" indicates few or no clouds below 12,000 feet with no
significant weather and/or obstructions to visibility.

* = STATION THAT DOES NOT REPORT PRECIPITATION /E.G. RAIN...SNOW...ETC/
    THUNDER OR FOG.

PAZ002>004-007>009-013>016-020>023-029>032-202200-
WESTERN PENNSYLVANIA

CITY           SKY/WX    TMP DP  RH WIND       PRES   REMARKS
ERIE           CLOUDY    43  25  49 S18G28    29.96F
MEADVILLE      CLEAR     39  25  57 SW13      30.00S
FRANKLIN*      CLEAR     39  23  52 S14G21    30.02S
NEW CASTLE     FAIR      43  23  45 S9        30.05S
BEAVER COUNTY  CLEAR    N/A N/A N/A SW12      30.06S
BUTLER*        CLEAR     41  23  48 S10       30.07S
PITTSBURGH INT PTCLDY    42  22  44 SW15G23   30.07S
PITTSBURGH     CLEAR     43  21  41 S13G20    30.08S
INDIANA*       CLEAR     41  25  52 SW9G16    30.11R
LATROBE        NOT AVBL
WASHINGTON CO* CLEAR     43  22  43 SW12      30.12S
$$

PAZ004>006-010>012-017>019-024>028-033>037-041-042-045-046-049>053-202200-
CENTRAL PENNSYLVANIA

CITY           SKY/WX    TMP DP  RH WIND       PRES   REMARKS
BRADFORD       CLEAR     37  23  56 SW8G17    29.96S
DUBOIS         CLEAR     38  22  52 SW13G21   30.02R
CLEARFIELD     CLEAR     41  23  48 SW10G17   30.05R
JOHNSTOWN      CLEAR     38  22  52 SW13      30.05R
ALTOONA        CLEAR     44  23  43 SW12      30.08R
STATE COLLEGE  CLEAR     43  25  49 SW12G21   30.06R
WILLIAMSPORT   CLEAR     47  24  40 SW13      30.04S
SELINSGROVE    CLOUDY    46  24  42 SW8       30.08R
FT INDIANTOWN  CLOUDY    46  23  41 SW12      30.09R
CAPITAL CITY   CLEAR     48  21  34 SW12      30.12R
HARRISBURG     MOCLDY    47  25  42 SW13      30.12R
YORK           CLEAR     46  22  38 SW7G17    30.13R
$$

PAZ038>040-043-044-047-048-054-055-060>062-067>071-202200-
EASTERN PENNSYLVANIA

CITY           SKY/WX    TMP DP  RH WIND       PRES   REMARKS
SCRANTON       CLEAR     42  25  50 W16G25    30.03R
MOUNT POCONO   CLEAR     36  24  62 W12G18    29.99R
ALLENTOWN      CLEAR     45  24  43 SW20G26   30.08R
QUAKERTOWN*    CLEAR     45  23  42 W7        30.10R
READING        CLOUDY    45  26  47 SW10      30.10R
LANCASTER      CLOUDY    45  24  43 W12G22    30.12R
COATESVILLE    CLEAR     45  23  42 W9G15     30.13R
POTTSTOWN      CLEAR     44  22  41 W8G20     30.13R
BLUE BELL      CLEAR     43  25  49 W8        30.13R
DOYLESTOWN     CLEAR     44  23  43 W9G17     30.09R
WILLOW GROVE   NOT AVBL
NORTH PHILA    CLOUDY    48  24  39 W15       30.13R
PHILADELPHIA   MOCLDY    48  22  35 W18       30.13R
$$




USA.gov is the U.S. government's official web portal to all federal, state and local government web resources and services.